This is the latest recevied weather packets stored in our database for station/object N6WDO. If no packets are shown the sender has not sent any weather packets the latest 10 day(s).
| Time | Temp. | Humidity | Pressure | Rain* | Wind** | Luminosity | Snow |
|---|---|---|---|---|---|---|---|
| 1778066967 | 6.67° C | 99% | 1020.6 hPa | 0 mm | - | 0 W/m² | - |
| 1778066665 | 6.11° C | 99% | 1020.6 hPa | 0 mm | - | 0 W/m² | - |
| 1778066060 | 6.67° C | 99% | 1020.4 hPa | 0 mm | - | 0 W/m² | - |
| 1778063637 | 6.67° C | 99% | 1020.2 hPa | 0 mm | - | 0 W/m² | - |
| 1778063334 | 6.67° C | 99% | 1019.9 hPa | 0 mm | - | 0 W/m² | - |
| 1778061519 | 6.67° C | 99% | 1020 hPa | 0 mm | - | 0 W/m² | - |
| 1778060913 | 7.22° C | 99% | 1019.7 hPa | 0 mm | - | 0 W/m² | - |
| 1778060612 | 6.67° C | 99% | 1020 hPa | 0 mm | - | 0 W/m² | - |
| 1778060309 | 6.67° C | 99% | 1019.7 hPa | 0 mm | - | 0 W/m² | - |
| 1778060006 | 6.67° C | 99% | 1019.7 hPa | 0 mm | - | 0 W/m² | - |
| 1778059402 | 7.22° C | 99% | 1020 hPa | 0 mm | - | 0 W/m² | - |
| 1778058494 | 6.67° C | 98% | 1020.1 hPa | 0 mm | - | 0 W/m² | - |
| 1778056673 | 7.22° C | 98% | 1020.2 hPa | 0 mm | - | 0 W/m² | - |
| 1778056371 | 7.22° C | 98% | 1020.4 hPa | 0 mm | - | 0 W/m² | - |
| 1778056068 | 7.22° C | 98% | 1020.2 hPa | 0 mm | - | 0 W/m² | - |
| 1778055763 | 7.78° C | 98% | 1020.4 hPa | 0 mm | - | 0 W/m² | - |
| 1778055462 | 7.78° C | 98% | 1020.2 hPa | 0 mm | - | 0 W/m² | - |
| 1778055159 | 7.78° C | 98% | 1020.2 hPa | 0 mm | - | 0 W/m² | - |
| 1778054857 | 7.78° C | 98% | 1020.3 hPa | 0 mm | - | 0 W/m² | - |
| 1778054553 | 7.22° C | 98% | 1020.2 hPa | 0 mm | - | 0 W/m² | - |
| 1778054251 | 7.22° C | 98% | 1020.1 hPa | 0 mm | - | 0 W/m² | - |
| 1778053040 | 7.78° C | 98% | 1019.9 hPa | 0 mm | - | 0 W/m² | - |
| 1778052737 | 7.78° C | 98% | 1019.9 hPa | 0 mm | - | 0 W/m² | - |
| 1778052434 | 7.22° C | 97% | 1019.7 hPa | 0 mm | - | 0 W/m² | - |
| 1778052132 | 7.78° C | 97% | 1019.9 hPa | 0 mm | - | 0 W/m² | - |
* Rain latest hour (hover to see other rain measurements)
** Current wind speed in m/s (hover to see current wind gust speed)